Location: Asheville, NC
(35.6000°N, 82.5500°W)
Time: 01:15:33
(UTC-04:00)

SEEDS - Pass Details

Date: 09 January 2018
Orbit: 587 x 605 km, 97.5° (Epoch: 25 April)

Event Time Altitude Azimuth Distance (km) Brightness Sun altitude
Rises 18:23:13 0° 143° (SE) 2,843 ? -9.8°
Reaches altitude 10° 18:25:35 10° 132° (SE) 1,943 ? -10.3°
Maximum altitude 18:29:14 29° 72° (ENE) 1,115 ? -11.0°
Drops below altitude 10° 18:32:53 10° 12° (NNE) 1,948 ? -11.7°
Sets 18:35:16 0° 1° (N) 2,852 ? -12.2°
